sat.trackr.live / text

‹ back to catalog

STARLINK-31835

NORAD 59772 · 2024-091V

PAYLOAD ACTIVE UNKNOWN

§ Identity

Operator
Country
US
Launch date
2024-05-14
Launch site
AFWTR
Launch vehicle
Mass (kg)
RCS (m²)

Purposes: comms

External: N2YO · Heavens-Above · Gunter

§ Orbital elements

Epoch: 2026-09-21T02:13:25.590720Z

Period
94.01 min
Inclination
53.1603°
Eccentricity
0.0001374
Mean motion
15.31702070 rev/d
Perigee alt
469.8 km
Apogee alt
471.7 km
Semi-major
6,848.9 km
B*
1.5011e-5
RAAN
197.6863°
Arg perigee
86.7134°
Mean anomaly
273.4024°
Rev number
13,294

§ Raw data

STARLINK-318351 59772U 24091V   26264.09265730  .00000101  00000+0  15011-4 0  99912 59772  53.1603 197.6863 0001374  86.7134 273.4024 15.31702070132941

JSON: /api/v1/satellites/59772 · /tle

For live sub-satellite position, see the globe view (requires WebGL).

§ Visibility from observer

Set your observer location to see the next 7 days of passes ≥ 10°. The values pass through the URL so the page stays shareable.

No JS? Fill the form by hand. The geolocation button needs JavaScript.